Simultaneous Nadir Overpasses (SNOs) Predictions

Prediction of SNOs between NPP and PACE Satellite Orbit:

Table of predicted SNOs for the next 14.0 days since TLE Epoch: 11/24/2024
Index Date (NPP) Time (NPP) Lat,Lon (NPP) SZA (NPP ) Date (PACE) Time (PACE) Lat,Lon (PACE) SZA (PACE ) Distance(km) Time Diff (sec)
1 11/24/2024 20:01:10 79.91,-158.29 102.33 11/24/2024 20:02:01 79.92,-158.44 102.33 3.00 51
2 11/24/2024 20:51:48 -79.72, 10.84 78.00 11/24/2024 20:51:04 -79.73, 10.72 77.96 2.59 44
3 11/26/2024 23:36:59 -79.99, -33.07 77.10 11/26/2024 23:38:00 -79.99, -32.97 77.14 2.04 61
4 11/27/2024 00:27:36 79.73, 136.77 102.45 11/27/2024 00:27:02 79.74, 136.65 102.48 2.48 34
5 11/29/2024 03:12:45 79.96, 93.37 103.22 11/29/2024 03:13:56 79.96, 93.26 103.21 2.00 71
6 11/29/2024
